Location: Bassa Roja
(42.6012°N, 1.6643°E)
Time: 08:10:53
(UTC+00:00)

Daily predictions for brighter satellites

Satellite Brightness Start Highest point End
(mag) Time Altitude Azimuth Time Altitude Azimuth Time Altitude Azimuth
Cosmos 2369 Rocket 3.8 16:46:27 10° WSW 16:51:25 31° NW 16:56:27 10° N
CORIOLIS 4.3 16:49:19 10° SSE 16:54:29 54° ENE 16:59:41 10° N
BREEZE M DEB (TANK) 4.1 16:38:23 10° WNW 16:54:41 58° N 16:58:55 10° E
CZ-2D R/B 3.8 16:54:24 10° SE 16:57:00 24° ENE 16:59:37 10° NNE
SL-16 R/B 2.8 16:52:29 10° NNE 16:58:44 75° WNW 17:04:53 10° SSW
Cosmos 1455 Rocket 3.6 16:54:51 10° SSW 16:59:06 60° W 17:03:24 10° N
Cosmos 44 3.5 16:54:10 10° NNW 16:59:27 85° ENE 17:04:50 10° SE
Cosmos 2151 4.3 16:57:50 10° NNE 17:00:46 18° ENE 17:03:40 10° ESE
Cosmos 1782 3.3 16:59:21 10° SSE 17:02:35 32° E 17:05:50 10° NNE
Lacrosse 5 rocket 1.6 16:59:07 10° WSW 17:02:49 54° NW 17:06:28 10° NE
Meteor 1-28 Rocket 3.4 17:00:37 10° N 17:03:57 63° WNW 17:07:14 10° SSW
Cosmos 1697 Rocket 4.2 17:05:20 10° SE 17:08:27 15° E 17:11:02 11° ENE
Cosmos 1743 3.6 17:06:43 10° NNE 17:09:15 20° ENE 17:11:45 10° SE
Cosmos 1570 Rocket 4.3 17:04:39 10° N 17:09:48 46° ENE 17:14:53 10° SE
NOSS 2-2 (C) 3.1 17:07:41 10° SW 17:11:07 63° NW 17:14:07 10° NNE
YAOGAN 1 3.9 17:14:08 10° ESE 17:16:54 17° ENE 17:19:41 10° NNE
SMAP 3.0 17:12:50 10° SSE 17:17:29 81° ENE 17:22:09 10° N
COSMO-SKYMED 1 3.9 17:19:06 15° ENE 17:20:38 18° E 17:23:26 10° SE
Cosmos 1486 Rocket 4.3 17:17:20 10° S 17:22:15 45° ESE 17:27:13 10° NNE
ERS-1 4.5 17:18:12 10° SSE 17:23:09 58° ENE 17:28:03 10° N
Landsat 7 3.7 17:19:41 10° SSE 17:24:18 72° ENE 17:28:58 10° N
Lacrosse 4 Rocket 2.9 17:20:44 10° WSW 17:24:24 31° NW 17:28:03 10° N
BREEZE-M DEB (TANK) 4.1 17:22:07 10° WNW 17:25:01 37° N 17:30:10 16° ENE
ATLAS CENTAUR R/B 2.4 17:26:19 10° N 17:28:21 17° NE 17:28:21 17° NE
IRS-1C 4.1 17:28:51 10° SSE 17:34:10 87° ENE 17:39:31 10° NNW
AQUARIUS 4.0 17:29:49 10° SSE 17:34:10 68° ENE 17:38:34 10° N
SPOT 1/Viking Rocket 3.9 17:29:33 10° SE 17:34:24 42° ENE 17:39:17 10° N
MOS 1 Rocket 3.3 17:31:08 10° SSE 17:35:46 64° ENE 17:40:43 10° N
Cosmos 2098 Rocket 2.6 17:34:17 10° S 17:37:51 79° E 17:42:07 10° N
Cosmos 1758 Rocket 3.4 17:33:38 10° N 17:37:58 81° E 17:42:15 10° S
ARIANE 5 R/B 2.5 17:33:17 10° SSE 17:38:18 84° WSW 17:43:25 10° NNW
CZ-2D R/B 4.1 17:35:01 10° SE 17:38:48 33° ENE 17:42:36 10° N
Cosmos 2208 Rocket 3.9 17:36:02 10° NNW 17:41:10 61° ENE 17:46:16 10° SSE
CENTAUR R/B 3.6 17:37:04 10° WSW 17:42:17 36° NW 17:48:44 10° NNE
Cosmos 2297 Rocket 2.4 17:37:37 10° NNW 17:43:05 46° ENE 17:48:30 10° SE
Cosmos 773 Rocket 3.9 17:39:37 10° NNW 17:44:48 65° ENE 17:49:59 10° SSE
USA 215 4.2 17:45:59 20° NE 17:49:11 29° NNE 17:54:38 10° NW
Cosmos 1655 Rocket 4.5 17:46:06 10° N 17:51:47 35° ENE 17:57:24 10° SE
Cosmos 1656 3.8 17:47:44 10° SSW 17:53:19 76° WNW 17:58:48 11° NNE
Cosmos 405 Rocket 3.8 17:52:14 10° NNW 17:55:18 38° W 17:58:18 10° SSW
Cosmos 990 Rocket 4.5 17:54:23 10° SSE 17:59:00 36° ESE 18:00:04 32° ENE
Helios 1A Rocket 3.6 18:04:29 28° SE 18:04:29 28° SE 18:06:30 10° S
NOSS 2-2 (D) 4.3 18:05:05 10° WSW 18:08:09 30° NW 18:09:17 23° N
Cosmos 1606 Rocket 3.4 18:04:22 10° S 18:08:41 66° E 18:10:48 29° NNE
Cosmos 1980 Rocket 3.7 18:04:39 10° SSE 18:07:09 19° SE 18:07:09 19° SE
NOAA 15 4.5 18:03:51 10° SSE 18:09:06 67° ENE 18:14:22 10° N
Cosmos 1461 2.8 18:06:21 10° SSW 18:10:06 52° ESE 18:10:10 52° ESE
Okean 1-7 Rocket 3.4 18:05:45 10° N 18:10:10 76° E 18:14:31 10° SSE
NOSS 2-2 (E) 4.0 18:08:42 10° WSW 18:11:55 35° NW 18:12:46 29° NNW
Resurs 1-3 3.4 18:09:26 10° SSE 18:13:40 63° ENE 18:17:56 10° N
BlueWalker 3 2.2 18:11:13 10° NW 18:14:19 48° N 18:14:19 48° N
Meteor 2-20 4.5 18:15:26 10° SSE 18:21:23 56° E 18:25:00 24° NNE
CZ-4C R/B 3.0 18:18:20 10° NNW 18:25:21 60° NE 18:29:51 29° ESE
Cosmos 1503 Rocket 4.1 18:21:56 10° SSW 18:27:11 73° WNW 18:30:10 26° NNE
NOSS 3-2 (C) 3.0 18:22:19 10° SW 18:27:14 79° NW 18:29:22 39° NNE
SKYMED 2 4.2 18:23:49 15° N 18:27:16 55° WNW 18:31:31 10° SSW
Cosmos 1933 3.5 18:23:48 10° SSW 18:27:36 66° W 18:28:34 46° NNW
Cosmos 2263 Rocket 3.6 18:23:19 10° N 18:25:49 21° NNE 18:25:49 21° NNE
IRAS Rocket 4.1 18:25:09 10° SSE 18:30:38 84° ENE 18:36:10 10° NNW
NOSS 3-2 (A) 4.5 18:26:26 10° WSW 18:31:02 33° NW 18:34:23 19° NNE
Cosmos 1354 Rocket 3.9 18:27:23 10° SSW 18:32:40 88° ESE 18:34:18 46° NNE
Cosmos 2227 Rocket 2.4 18:28:17 10° NNW 18:33:08 48° NE 18:33:08 48° NE
Spot 4 Rocket 4.1 18:29:26 10° S 18:34:31 75° WSW 18:39:39 10° NNW
Cosmos 1726 Rocket 3.6 18:32:02 10° S 18:36:39 85° W 18:37:32 59° N
Cosmos 2151 4.5 18:33:53 10° NNW 18:37:40 35° W 18:41:27 10° SSW
Lacrosse 5 rocket 3.6 18:38:37 10° NW 18:40:19 13° NNW 18:40:19 13° NNW
Meteor 2-20 Rocket 4.4 18:38:05 10° S 18:44:07 60° ESE 18:44:07 60° ESE
BREEZE-M DEB (TANK) 4.1 18:41:17 10° SW 18:43:50 32° SW 18:43:50 32° SW
Cosmos 1867 4.0 18:39:50 10° NNW 18:44:08 48° N 18:44:08 48° N
Gbstr 26 Del rocket 4.1 18:45:48 10° SW 18:48:09 33° SW 18:48:09 33° SW
Cosmos 1697 Rocket 2.7 18:46:05 10° SSW 18:51:40 74° WNW 18:52:48 56° N
YAOGAN 1 3.5 18:48:19 10° S 18:52:23 45° W 18:56:29 10° NNW
COSMO-SKYMED 1 3.7 18:55:26 35° NW 18:56:05 38° WNW 18:59:54 10° SW
ATLAS CENTAUR R/B 4.0 19:00:38 10° NW 19:00:41 10° NW 19:00:41 10° NW
Cosmos 1607 4.5 19:06:31 10° NW 19:12:35 56° WSW 19:14:51 37° S
USA 238 DEB 4.2 19:20:08 10° SSW 19:24:00 43° SSW 19:24:00 43° SSW
USA 238 4.2 19:20:14 10° SSW 19:24:03 43° SSW 19:24:03 43° SSW
Cosmos 2297 Rocket 4.1 19:22:12 10° NW 19:26:48 26° WSW 19:31:24 10° SSW
USA 215 4.0 19:33:20 44° NNW 19:33:20 44° NNW 19:37:50 10° NW
BREEZE-M DEB (TANK) 4.2 19:37:08 10° WNW 20:17:36 - SE 19:41:24 77° NW
Cosmos 1980 Rocket 4.1 19:46:54 10° SW 19:48:58 23° SW 19:48:58 23° SW
CZ-4C R/B 4.1 20:06:50 10° NW 20:13:44 39° WSW 20:14:57 37° SW
